Home   Weather   Versailles   Past weeks
Flag for France

Past Weather in Versailles, Île-de-France, France — Yesterday and Last 2 Weeks

Now
39 °F

Partly cloudy.


Feels Like: 34 °F
Forecast: 47 / 38 °F
Wind: 8 mph from Southwest

Location: Villacoublay

Current Time: Nov 12, 2019 at 4:18:33 am

Latest Report: Nov 12, 2019 at 3:30 am


Visibility: N/A

Pressure: 29.71 "Hg

Humidity: 93%

Dew Point: 37 °F

Location of VersaillesLocation

Past Weather in Versailles — Graph

°F

Versailles Temperature Yesterday

Maximum temperature yesterday: 46 °F (at 2:00 pm)
Minimum temperature yesterday: 39 °F (at 2:00 am)
Average temperature yesterday: 41 °F

High & Low Weather Summary for the Past Weeks

 TemperatureHumidityPressure
High61 °F (Nov 1, 4:00 pm)100% (Oct 31, 1:00 am)30.18 "Hg (Oct 31, 1:00 am)
Low36 °F (Nov 9, 1:00 am)54% (Oct 28, 1:30 pm)28.94 "Hg (Nov 3, 6:30 am)
Average48 °F89%29.68 "Hg
* Reported Oct 28 3:00 am — Nov 12 3:00 am, Versailles. Weather by CustomWeather, © 2019

Note: Actual official high and low records may vary slightly from our data, if they occured in-between our weather recording intervals... More about our weather records

Advertising

Versailles Weather History for the Previous 24 Hours

Scroll right to see more
 ConditionsComfort  
Time TempWeatherWind HumidityBarometerVisibility
3:00 am
Tue, Nov 12
39 °FPassing clouds.8 mph93%29.71 "HgN/A
2:30 am39 °FPassing clouds.7 mph93%29.71 "HgN/A
2:00 am39 °FClear.6 mph93%29.71 "Hg10 mi
1:30 am39 °FPassing clouds.8 mph93%29.71 "HgN/A
1:00 am37 °FPassing clouds.6 mph100%29.74 "HgN/A
12:30 am37 °FPartly cloudy.5 mph93%29.74 "HgN/A
12:00 am39 °FPassing clouds.7 mph93%29.74 "HgN/A
11:30 pm
Mon, Nov 11
39 °FPartly cloudy.6 mph93%29.74 "HgN/A
11:00 pm39 °FPassing clouds.8 mph93%29.74 "HgN/A
10:30 pm39 °FClear.8 mph93%29.74 "Hg10 mi
10:00 pm39 °FClear.9 mph93%29.74 "Hg10 mi
9:30 pm41 °FClear.13 mph87%29.74 "Hg10 mi
9:00 pm41 °FPassing clouds.10 mph87%29.74 "HgN/A
8:30 pm41 °FPassing clouds.13 mph87%29.74 "HgN/A
8:00 pm41 °FPassing clouds.7 mph87%29.74 "HgN/A
7:30 pm41 °FPassing clouds.7 mph87%29.74 "HgN/A
7:00 pm41 °FPassing clouds.9 mph87%29.74 "HgN/A
6:30 pm41 °FClear.9 mph87%29.71 "Hg10 mi
6:00 pm41 °FPassing clouds.8 mph93%29.71 "HgN/A
5:30 pm41 °FPassing clouds.7 mph87%29.71 "HgN/A
5:00 pm43 °FSunny.12 mph81%29.68 "Hg10 mi
4:30 pm45 °FBroken clouds.10 mph81%29.68 "HgN/A
4:00 pm45 °FPartly sunny.16 mph81%29.68 "HgN/A
3:30 pm46 °FPartly sunny.13 mph82%29.68 "HgN/A
3:00 pm46 °FBroken clouds.15 mph87%29.68 "HgN/A
2:30 pm46 °FPartly sunny.14 mph82%29.68 "HgN/A
2:00 pm46 °FBroken clouds.13 mph93%29.68 "HgN/A
1:30 pm45 °FBroken clouds.9 mph100%29.65 "HgN/A
1:00 pm45 °FLight rain. Broken clouds.10 mph93%29.68 "HgN/A
12:30 pm43 °FLight rain. Mostly cloudy.9 mph100%29.68 "HgN/A
12:00 pm43 °FLight rain. Low clouds.10 mph100%29.68 "Hg4 mi
11:30 am43 °FLight rain. Low clouds.10 mph93%29.71 "HgN/A
11:00 am41 °FLight rain. Low clouds.10 mph100%29.71 "HgN/A
10:30 am41 °FLight rain. Fog.10 mph100%29.71 "Hg3 mi
10:00 am41 °FLight rain. Low clouds.10 mph100%29.74 "HgN/A
9:30 am41 °FLight rain. Low clouds.12 mph100%29.74 "HgN/A
9:00 am41 °FLow clouds.10 mph100%29.74 "HgN/A
8:30 am41 °FLow clouds.10 mph100%29.74 "HgN/A
8:00 am41 °FLow clouds.12 mph100%29.74 "Hg6 mi
7:30 am39 °FFog.13 mph100%29.77 "Hg2 mi
7:00 am39 °FFog.9 mph100%29.77 "Hg1 mi
6:30 am39 °FFog.8 mph100%29.80 "Hg1 mi
6:00 am39 °FFog.9 mph100%29.80 "Hg1 mi
5:30 am39 °FDense fog.12 mph100%29.80 "Hg1 mi
5:00 am39 °FFog.8 mph100%29.83 "Hg1 mi
4:30 am39 °FLow clouds.7 mph100%29.86 "Hg4 mi
4:00 am39 °FLow clouds.7 mph100%29.86 "HgN/A
Weather by CustomWeather, © 2019

See weather overview